Time,TemperatureF,DewpointF,PressureIn,WindDirection,WindDirectionDegrees,WindSpeedMPH,WindSpeedGustMPH,Humidity,HourlyPrecipIn,Conditions,Clouds,dailyrainin,SoftwareType,DateUTC
2017-03-30 00:02:00,38.6,35.9,30.03,NNE,32,9.0,15.0,90,0.02,,---,0.01,VWS V14.00,2017-03-30 05:02:00,
2017-03-30 00:07:00,38.4,35.7,30.03,ESE,117,7.0,10.0,90,0.02,,---,0.01,VWS V14.00,2017-03-30 05:07:00,
2017-03-30 00:12:00,38.4,35.7,30.03,ENE,64,3.0,10.0,90,0.02,,---,0.01,VWS V14.00,2017-03-30 05:12:00,
2017-03-30 00:14:00,38.3,35.6,30.02,ENE,67,0.0,17.0,90,0.02,,---,0.01,VWS V14.00,2017-03-30 05:14:00,
2017-03-30 00:19:00,38.2,35.5,30.02,NE,51,5.0,14.0,90,0.02,,---,0.01,VWS V14.00,2017-03-30 05:19:00,
2017-03-30 00:24:00,38.1,35.4,30.03,ENE,76,9.0,13.0,90,0.02,,---,0.01,VWS V14.00,2017-03-30 05:24:00,
2017-03-30 00:29:00,38.1,35.4,30.02,ENE,59,1.0,12.0,90,0.02,,---,0.01,VWS V14.00,2017-03-30 05:29:00,
2017-03-30 00:34:00,38.1,35.4,30.02,ENE,58,1.0,10.0,90,0.02,,---,0.01,VWS V14.00,2017-03-30 05:34:00,
2017-03-30 00:39:00,38.1,35.4,30.02,ENE,72,6.0,12.0,90,0.02,,---,0.01,VWS V14.00,2017-03-30 05:39:00,
2017-03-30 00:44:00,38.0,35.3,30.01,ENE,61,9.0,12.0,90,0.01,,---,0.01,VWS V14.00,2017-03-30 05:44:00,
2017-03-30 00:49:00,38.0,35.3,30.01,NE,54,5.0,11.0,90,0.01,,---,0.01,VWS V14.00,2017-03-30 05:49:00,
2017-03-30 00:54:00,38.0,35.3,30.00,NE,56,7.0,10.0,90,0.01,,---,0.01,VWS V14.00,2017-03-30 05:54:00,
2017-03-30 00:59:00,37.9,35.2,30.00,NNE,30,6.0,13.0,90,0.01,,---,0.01,VWS V14.00,2017-03-30 05:59:00,
2017-03-30 01:04:00,37.9,35.2,29.99,ENE,64,4.0,17.0,90,0.00,,---,0.01,VWS V14.00,2017-03-30 06:04:00,
2017-03-30 01:09:00,37.9,35.2,29.99,NE,46,4.0,12.0,90,0.00,,---,0.01,VWS V14.00,2017-03-30 06:09:00,
2017-03-30 01:14:00,38.0,35.3,29.99,ENE,69,3.0,12.0,90,0.00,,---,0.01,VWS V14.00,2017-03-30 06:14:00,
2017-03-30 01:19:00,38.0,35.3,29.98,East,84,6.0,11.0,90,0.00,,---,0.01,VWS V14.00,2017-03-30 06:19:00,
2017-03-30 01:24:00,38.0,35.3,29.98,East,84,2.0,12.0,90,0.00,,---,0.01,VWS V14.00,2017-03-30 06:24:00,
2017-03-30 01:29:00,38.1,35.4,29.99,East,94,7.0,13.0,90,0.00,,---,0.01,VWS V14.00,2017-03-30 06:29:00,
2017-03-30 01:34:00,38.2,35.5,29.99,NE,41,3.0,10.0,90,0.00,,---,0.01,VWS V14.00,2017-03-30 06:34:00,
2017-03-30 01:39:00,38.2,35.5,30.00,East,101,0.0,9.0,90,0.00,,---,0.01,VWS V14.00,2017-03-30 06:39:00,
2017-03-30 01:44:00,38.2,35.5,30.00,ENE,68,0.0,10.0,90,0.00,,---,0.01,VWS V14.00,2017-03-30 06:44:00,
2017-03-30 01:49:00,38.3,35.6,30.00,ENE,69,0.0,9.0,90,0.00,,---,0.01,VWS V14.00,2017-03-30 06:49:00,
2017-03-30 01:54:00,38.3,35.6,30.00,ENE,65,1.0,11.0,90,0.00,,---,0.01,VWS V14.00,2017-03-30 06:54:00,
2017-03-30 01:59:00,38.4,35.7,30.00,ESE,117,8.0,8.0,90,0.00,,---,0.01,VWS V14.00,2017-03-30 06:59:00,
2017-03-30 02:04:00,38.4,35.7,30.00,East,86,3.0,9.0,90,0.00,,---,0.01,VWS V14.00,2017-03-30 07:04:00,
2017-03-30 02:09:00,38.5,35.8,30.01,East,95,0.0,7.0,90,0.01,,---,0.02,VWS V14.00,2017-03-30 07:09:00,